sat.trackr.live / text

‹ back to catalog

STARLINK-11481 [DTC]

NORAD 62230 · 2024-231N

PAYLOAD ACTIVE UNKNOWN

§ Identity

Operator
Country
US
Launch date
2024-12-05
Launch site
AFWTR
Launch vehicle
Mass (kg)
RCS (m²)

Purposes: comms

External: N2YO · Heavens-Above · Gunter

§ Orbital elements

Epoch: 2026-09-21T07:49:23.698272Z

Period
91.73 min
Inclination
53.1573°
Eccentricity
0.0001362
Mean motion
15.69760708 rev/d
Perigee alt
358.7 km
Apogee alt
360.5 km
Semi-major
6,737.7 km
B*
1.1525e-3
RAAN
217.1914°
Arg perigee
157.8502°
Mean anomaly
202.2576°
Rev number
10,413

§ Raw data

STARLINK-11481 [DTC]1 62230U 24231N   26264.32596873  .00141737  00000+0  11525-2 0  99962 62230  53.1573 217.1914 0001362 157.8502 202.2576 15.69760708104136

JSON: /api/v1/satellites/62230 · /tle

For live sub-satellite position, see the globe view (requires WebGL).

§ Visibility from observer

Set your observer location to see the next 7 days of passes ≥ 10°. The values pass through the URL so the page stays shareable.

No JS? Fill the form by hand. The geolocation button needs JavaScript.